Marshfield, MA

3:56 AM EDT on August 22, 2019 (GMT -0400)
Marshfield

Weather History for KGHG - July, 2019

Change the Weather History Date:

Monday, July 22, 2019

  Actual Average (WUND) Record (WUND)
Temperature  
Mean Temperature 74 °F -  
Max Temperature 80 °F - - (-1)
Min Temperature 69 °F - - (-1)
Cooling Degree Days 10    
Growing Degree Days 24 (Base 50)    
Moisture  
Dew Point 69 °F    
Average Humidity 79    
Maximum Humidity 100    
Minimum Humidity 65    
Precipitation  
Precipitation 0.74 in - - ()
Sea Level Pressure  
Sea Level Pressure 29.83 in    
Wind  
Wind Speed 5 mph (NE)    
Max Wind Speed 17 mph    
Max Gust Speed 24 mph    
Visibility 9 miles    
Events Rain , Thunderstorm    
Averages and records for this station are not official NWS values.
T = Trace of Precipitation, MM = Missing Value Source: NWS Daily Summary

Daily Weather History Graph

Daily Weather History Graph

Search for Another Location

Airport or City:

Astronomy

Jul. 22, 2019 Rise Set
Actual Time 5:25 AM EDT 8:11 PM EDT
Civil Twilight 4:53 AM EDT 8:44 PM EDT
Nautical Twilight 4:12 AM EDT 9:25 PM EDT
Astronomical Twilight 3:24 AM EDT 10:12 PM EDT
Moon 11:25 PM EDT 10:44 AM EDT
Length of Visible Light 15h 51m
Length of Day
14h 45m
Waning Gibbous, 72% of the Moon is Illuminated
Jul 22
Waning Gibbous
Jul 24
Last Quarter
Jul 31
New
Aug 7
First Quarter
Aug 15
Full

Hourly Weather History & Observations

Time (EDT) Temp. Heat Index Dew Point Humidity Pressure Visibility Wind Dir Wind Speed Gust Speed Precip Events Conditions
12:15 AM 80.6 °F 83.2 °F 68.0 °F 65% 29.79 in 10.0 mi West 4.6 mph - N/A   Clear
12:35 AM 80.6 °F 83.2 °F 68.0 °F 65% 29.79 in 10.0 mi Variable 3.5 mph - N/A   Clear
12:55 AM 78.8 °F - 69.8 °F 74% 29.79 in 10.0 mi Calm Calm - N/A   Clear
1:15 AM 77.0 °F - 69.8 °F 78% 29.79 in 10.0 mi Calm Calm - N/A   Clear
1:35 AM 78.8 °F - 69.8 °F 74% 29.79 in 10.0 mi Calm Calm - N/A   Clear
1:55 AM 78.8 °F - 69.8 °F 74% 29.80 in 10.0 mi Variable 4.6 mph - N/A   Clear
2:15 AM 77.0 °F - 69.8 °F 78% 29.80 in 10.0 mi Variable 3.5 mph - N/A   Clear
2:35 AM 77.0 °F - 69.8 °F 78% 29.81 in 10.0 mi West 3.5 mph - N/A   Clear
2:55 AM 77.0 °F - 69.8 °F 78% 29.80 in 10.0 mi Calm Calm - N/A   Clear
3:15 AM 75.2 °F - 69.8 °F 83% 29.80 in 10.0 mi Calm Calm - N/A   Clear
3:35 AM 75.2 °F - 69.8 °F 83% 29.81 in 10.0 mi Calm Calm - N/A   Clear
3:55 AM 77.0 °F - 68.0 °F 74% 29.81 in 10.0 mi Calm Calm - N/A   Clear
4:15 AM 77.0 °F - 68.0 °F 74% 29.81 in 10.0 mi Calm Calm - N/A   Clear
4:35 AM 77.0 °F - 66.2 °F 69% 29.81 in 10.0 mi Calm Calm - N/A   Clear
4:55 AM 77.0 °F - 66.2 °F 69% 29.82 in 10.0 mi Calm Calm - N/A   Clear
5:15 AM 78.8 °F - 66.2 °F 65% 29.82 in 10.0 mi Variable 4.6 mph - N/A   Clear
5:35 AM 77.0 °F - 66.2 °F 69% 29.82 in 10.0 mi NNW 4.6 mph - N/A   Clear
5:55 AM 77.0 °F - 66.2 °F 69% 29.82 in 10.0 mi Calm Calm - N/A   Clear
6:15 AM 77.0 °F - 66.2 °F 69% 29.84 in 10.0 mi Variable 3.5 mph - N/A   Clear
6:35 AM 77.0 °F - 68.0 °F 74% 29.84 in 10.0 mi Calm Calm - N/A   Clear
6:55 AM 78.8 °F - 68.0 °F 69% 29.84 in 10.0 mi Variable 4.6 mph - N/A   Clear
7:15 AM 78.8 °F - 68.0 °F 69% 29.85 in 10.0 mi Variable 5.8 mph - N/A   Clear
7:35 AM 78.8 °F - 66.2 °F 65% 29.85 in 10.0 mi Variable 6.9 mph - N/A   Clear
7:55 AM 78.8 °F - 66.2 °F 65% 29.85 in 10.0 mi Variable 5.8 mph - N/A   Clear
8:15 AM 78.8 °F - 66.2 °F 65% 29.86 in 10.0 mi Variable 4.6 mph - N/A   Clear
8:35 AM 78.8 °F - 66.2 °F 65% 29.86 in 10.0 mi Variable 4.6 mph - N/A   Clear
8:55 AM 78.8 °F - 66.2 °F 65% 29.85 in 10.0 mi Variable 4.6 mph - N/A   Clear
9:15 AM 78.8 °F - 66.2 °F 65% 29.85 in 10.0 mi Variable 6.9 mph - N/A   Clear
9:35 AM 77.0 °F - 66.2 °F 69% 29.86 in 10.0 mi Variable 4.6 mph 11.5 mph N/A   Clear
9:55 AM 77.0 °F - 66.2 °F 69% 29.87 in 10.0 mi Variable 4.6 mph - N/A   Clear
10:15 AM 77.0 °F - 66.2 °F 69% 29.87 in 10.0 mi Variable 4.6 mph 11.5 mph N/A   Clear
10:35 AM 78.8 °F - 66.2 °F 65% 29.87 in 10.0 mi Variable 3.5 mph 11.5 mph N/A   Clear
10:55 AM 78.8 °F - 66.2 °F 65% 29.87 in 10.0 mi Variable 6.9 mph - N/A   Clear
11:15 AM 78.8 °F - 68.0 °F 69% 29.86 in 10.0 mi Variable 6.9 mph - N/A   Clear
11:35 AM 78.8 °F - 68.0 °F 69% 29.87 in 10.0 mi Variable 4.6 mph 15.0 mph N/A   Partly Cloudy
11:55 AM 77.0 °F - 68.0 °F 74% 29.87 in 10.0 mi Variable 5.8 mph - N/A   Scattered Clouds
12:15 PM 78.8 °F - 68.0 °F 69% 29.88 in 10.0 mi Variable 4.6 mph 11.5 mph N/A   Scattered Clouds
12:35 PM 77.0 °F - 69.8 °F 78% 29.87 in 9.0 mi Variable 5.8 mph - N/A   Light Drizzle
12:55 PM 75.2 °F - 68.0 °F 78% 29.87 in 10.0 mi Variable 5.8 mph - N/A   Partly Cloudy
1:15 PM 75.2 °F - 68.0 °F 78% 29.87 in 10.0 mi Variable 5.8 mph - N/A   Partly Cloudy
1:35 PM 75.2 °F - 68.0 °F 78% 29.87 in 10.0 mi Variable 5.8 mph - N/A   Partly Cloudy
1:55 PM 75.2 °F - 68.0 °F 78% 29.88 in 10.0 mi Variable 4.6 mph 12.7 mph N/A   Mostly Cloudy
2:15 PM 75.2 °F - 68.0 °F 78% 29.86 in 10.0 mi Variable 6.9 mph 13.8 mph N/A   Scattered Clouds
2:35 PM 75.2 °F - 68.0 °F 78% 29.87 in 10.0 mi NE 8.1 mph - N/A   Mostly Cloudy
2:55 PM 75.2 °F - 68.0 °F 78% 29.86 in 10.0 mi Variable 6.9 mph - N/A   Mostly Cloudy
3:15 PM 75.2 °F - 68.0 °F 78% 29.86 in 10.0 mi ENE 6.9 mph - N/A   Mostly Cloudy
3:35 PM 75.2 °F - 68.0 °F 78% 29.85 in 10.0 mi ENE 6.9 mph 12.7 mph N/A   Overcast
3:55 PM 75.2 °F - 68.0 °F 78% 29.84 in 10.0 mi ENE 9.2 mph - N/A   Mostly Cloudy
4:15 PM 75.2 °F - 69.8 °F 83% 29.83 in 10.0 mi ENE 10.4 mph - N/A   Mostly Cloudy
4:35 PM 75.2 °F - 69.8 °F 83% 29.83 in 10.0 mi ENE 6.9 mph - N/A   Mostly Cloudy
4:55 PM 73.4 °F - 69.8 °F 88% 29.83 in 10.0 mi ENE 6.9 mph - N/A   Overcast
5:15 PM 75.2 °F - 71.6 °F 89% 29.83 in 10.0 mi ENE 8.1 mph - N/A   Overcast
5:35 PM 73.4 °F - 71.6 °F 94% 29.83 in 10.0 mi NE 6.9 mph - N/A   Overcast
5:55 PM 73.4 °F - 71.6 °F 94% 29.83 in 10.0 mi ENE 8.1 mph - N/A   Overcast
6:15 PM 73.4 °F - 71.6 °F 94% 29.82 in 10.0 mi NE 10.4 mph - N/A   Overcast
6:35 PM 73.4 °F - 71.6 °F 94% 29.82 in 10.0 mi NE 8.1 mph - N/A   Unknown
6:55 PM 73.4 °F - 71.6 °F 94% 29.81 in 10.0 mi NE 8.1 mph 15.0 mph N/A   Overcast
7:15 PM 73.4 °F - 71.6 °F 94% 29.81 in 10.0 mi NE 9.2 mph 16.1 mph N/A   Overcast
7:35 PM 73.4 °F - 71.6 °F 94% 29.81 in 10.0 mi ENE 10.4 mph 17.3 mph N/A   Overcast
7:55 PM 73.4 °F - 71.6 °F 94% 29.80 in 10.0 mi ENE 11.5 mph 17.3 mph N/A   Overcast
8:15 PM 73.4 °F - 71.6 °F 94% 29.80 in 10.0 mi ENE 9.2 mph 15.0 mph N/A   Overcast
8:35 PM 73.4 °F - 71.6 °F 94% 29.80 in 10.0 mi NE 9.2 mph - N/A   Overcast
8:50 PM 73.4 °F - 71.6 °F 94% 29.82 in 10.0 mi Variable 3.5 mph - N/A Thunderstorm Overcast
9:15 PM 71.6 °F - 69.8 °F 94% 29.79 in 4.0 mi East 17.3 mph 24.2 mph N/A Rain Light Rain
9:35 PM 71.6 °F - 69.8 °F 94% 29.82 in 4.0 mi ENE 8.1 mph - N/A Rain , Thunderstorm Light Thunderstorms and Rain
9:55 PM 71.6 °F - 71.6 °F 100% 29.83 in 1.8 mi ENE 8.1 mph 15.0 mph 0.51 in Rain , Thunderstorm Thunderstorms and Rain
10:15 PM 71.6 °F - 71.6 °F 100% 29.78 in 4.0 mi ENE 12.7 mph 20.7 mph N/A Rain , Thunderstorm Light Thunderstorms and Rain
10:35 PM 71.6 °F - 71.6 °F 100% 29.78 in 4.0 mi ENE 9.2 mph 20.7 mph N/A Rain , Thunderstorm Light Thunderstorms and Rain
10:55 PM 69.8 °F - 69.8 °F 100% 29.76 in 4.0 mi ENE 16.1 mph - 0.17 in Rain Light Rain
11:15 PM 71.6 °F - 69.8 °F 94% 29.77 in 4.0 mi Variable 6.9 mph 18.4 mph N/A Rain Light Rain
11:35 PM 71.6 °F - 69.8 °F 94% 29.77 in 6.0 mi East 9.2 mph 15.0 mph N/A   Light Drizzle
11:55 PM 69.8 °F - 69.8 °F 100% 29.74 in 9.0 mi ENE 12.7 mph 18.4 mph 0.06 in   Overcast